Details From LKTB - Turany
To LIME - Bergamo Orio Al Serio
Flight Number -
Tags Generated
Created
Modified
Stats Distance 353 nm / 653 km
Max Altitude 0 ft / 0 m
Waypoints 3
Social Downloads 0
Likes 0
Share VATSIM

Download

Looking for another format? Having issues loading an existing format? Contact us
Advertisement - Login to hide

Notes

Generated

Route

LKTB BEG LIME

ID Type Via Altitude Latitude Longitude Leg Dist Tot Dist Heading (true) Name
O LKTB APT - 0 ft / 0 m 49.15287˚ 16.67587˚ - 0 nm - -
BEG VOR - 0 ft / 0 m 45.67000˚ 9.71000˚ 351 nm 351 nm 236° / 231° BERGAMO VOR-DME
O LIME APT - 0 ft / 0 m 45.67113˚ 9.68904˚ 0 nm 352 nm 274° / 274° -

Altitude Profile

Advertisement - Login to hide

Weather


0- 5 10 15 20 25 30 35+ Temperature / ° C

Clouds and Precipitation
Forecast for 2018-05-25 06:00 UTC. Updated 2 hours ago

Ground ~20,000 ft ~40,000 ft Winds

LKTB

Details ICAO LKTB (BRQ)
Name Turany
Region Czech Republic
Timezone Europe/Prague (UTC+2.0)
Stats Elevation 777 ft / 237 m (AMSL)
Location 49.151016° 16.693171°
Runways 2
Magnetic Variation 4.431° E

METAR

LKTB 250730Z 19003KT 160V220 9999 VCSH FEW049 17/13 Q1019 NOSIG

Decode

TAF

TAF LKTB 242300Z 2500/2606 06010KT 9999 SCT040 TEMPO 2500/2520 12012G22KT 8000 SHRA SCT025TCU PROB30 TEMPO 2504/2512 6000 TSRA SCT023CB

Decode

Departure Runways

ID Width Length Bearing (true) Bearing (mag) Surface Threshold Offset Overrun Length
09 98 ft / 30 m 3,272 ft / 997 m 97.50° 93.07° Grass 0 ft / 0 m 0 ft / 0 m
10 197 ft / 60 m 8,674 ft / 2,644 m 97.52° 93.09° Concrete 0 ft / 0 m 0 ft / 0 m
27 98 ft / 30 m 3,272 ft / 997 m 277.51° 273.08° Grass 0 ft / 0 m 0 ft / 0 m
28 197 ft / 60 m 8,674 ft / 2,644 m 277.55° 273.12° Concrete 0 ft / 0 m 0 ft / 0 m

LIME

Details ICAO LIME (BGY)
Name Bergamo Orio Al Serio
Region Italy
Timezone Europe/Rome (UTC+2.0)
Stats Elevation 779 ft / 237 m (AMSL)
Location 45.672004° 9.706892°
Runways 2
Magnetic Variation 2.654° E

METAR

LIME 250720Z VRB02KT CAVOK 22/14 Q1017 NOSIG

Decode

TAF

TAF LIME 250500Z 2506/2606 VRB05KT CAVOK

Decode

Destination Runways

ID Width Length Bearing (true) Bearing (mag) Surface Threshold Offset Overrun Length
10 148 ft / 45 m 9,897 ft / 3,017 m 104.89° 102.24° Asphalt 312 ft / 95 m 0 ft / 0 m
12 59 ft / 18 m 2,665 ft / 812 m 121.47° 118.82° Asphalt 197 ft / 60 m 0 ft / 0 m
28 148 ft / 45 m 9,897 ft / 3,017 m 284.91° 282.26° Asphalt 712 ft / 217 m 0 ft / 0 m
30 59 ft / 18 m 2,665 ft / 812 m 301.48° 298.83° Asphalt 312 ft / 95 m 0 ft / 0 m

Approach Navaids

Runway Type Ident Frequency Range Bearing (true) Bearing (mag) Slope Elevation
28 Localiser BRM 108.70 MHz 18 nm / 33 km 285.08° 282.43° - 779 ft / 237 m (AMSL)
28 Glidescope BRM 108.70 MHz 10 nm / 19 km 284.90° 282.25° 3.00° 779 ft / 237 m (AMSL)
28 DME BRM 108.70 MHz 18 nm / 33 km - - - 779 ft / 237 m (AMSL)

Popular Alternatives